Terminal Aerodrome Forecast
Issued by NWS

Home | Current Version | Previous Version | Text Only | Print | Product List | Glossary On
Versions: 1 2 3 4 5 6 7 8 9 10 11 12 13 14 15 16 17
000
FTUS41 KPBZ 131100
TAFFKL
TAF
KFKL 131120Z 1312/1412 24005KT P6SM BKN050
     FM131400 21012G22KT P6SM VCSH BKN035
     FM131700 22010G20KT 6SM -SHRA OVC035
     FM132100 23010KT P6SM SCT025 BKN035
      AMD LTD TO CLD VIS AND WIND=

USA.gov is the U.S. government's official web portal to all federal, state and local government web resources and services.